Powrót do katalogu

OPS 4682 DEB

AktywnyPO
NORAD 52784·DEBRIS·🇺🇸 United States

Wystrzelony Apr 3, 1965 z Vandenberg Space Force Base

Loading…

Następne Przeloty (najbliższe 24 godziny)

TLE

ŚwieżeSource: Space-Track

Epoka: Sep 13, 2026, 18:29 UTC

1 52784U 65027HA  26256.77049886  .00000669  00000-0  22666-2 0  9991
2 52784  90.2507   9.6130 0032545 218.4236 141.4567 12.97768616553076

Śledź OPS 4682 DEB w czasie rzeczywistym z AllMySat

Download on the App Store